Погода Остров Врангеля

Погода Остров Врангеля : погода сейчас, прогноз погоды и архив. Всё, что Вы хотите узнать о погоде Остров Врангеля!

Поиск расширенной информации на нашем сайте:

Другие новости

Новости СМИ2

Главная страница сайта

Новости сайта

03.07.2017

Напоминаем, что на нашем специализированном сайте Метеоцентр.Азия вы можете получить высокодетализированные автоматические прогнозы погоды по пунктам России, СНГ и мира в авиационном формате (включающие направление и скорость ветра, видимость, явления погоды, количество и форму облачности, нижнюю и верхнюю границу облачности).


Погода Остров Врангеля - сегодня

Время (UTC), дата Ветер
(°,м/с) 
Видим.   Явления Облачность Т
(°С)
Тd
(°С)
f(%) Тe
(°С)
Pmin
(гПа)
dP
(гПа)
Po
(мм)
O2
(г/м3)
Тmin Tmax R s Состояние
почвы
18 17.11.17 320 (СЗ) 12-14{14}  4000 м  метель{ливн. осадки}  10/3 600 м средняя 
[Sc|Ac und]
-3.9 -6.2 84 -10  1014.5  1.9  759  311  -10.8    0.5  21  неравномерный
сухой снег
100% 
21 17.11.17 330 (СЗ) 10-12{15}  20000 м  позёмок  9/6 600 м средняя 
[Sc|Ac trans]
-3.1 -5.9 81 -9  1017  2.5  761  311           
00 18.11.17 320 (СЗ) 9-12{14}  20000 м  позёмок  8/8 600 м 
[Sc]
-3.1 -5.9 81 -8  1018.8  1.9  762  311           
03 18.11.17 360 (С) 6{12}  20000 м    8/8 600 м 
[Sc]
-3.7 -6.1 83 -8  1019.1  0.2  762  312           
06 18.11.17 030 (СВ) 5{08}  20000 м    10/10 600 м 
[Sc]
-2.8 -5.1 84 -6  1018.7  -0.4  762  311    -2.1       
09 18.11.17 060 (СВ) 6{08}  20000 м    10/10 600 м 
[Sc]
-2.2 -4.8 82 -6  1017.5  -1.1  761  310           
12 18.11.17 130 (ЮВ) 3{09}  20000 м    10/10 600 м 
[Sc]
-3.9 -5 92 -6  1016.4  -1.2  760  311           
15 18.11.17 110 (В) 6{09}  20000 м    10/10 600 м 
[Sc]
-3 -5.1 85 -7  1014.3  -2.1  759  310           
18 18.11.17 110 (В) 12-16{16}  20000 м  позёмок  10/10 600 м 
[Sc]
-2.4 -5.2 81 -8  1011.4  -2.8  757  308  -3.9      17  неравномерный
сухой снег
100% 
21 18.11.17 110 (В) 12-15{17}  20000 м  позёмок  10/10 300 м 
[Sc]
-3.1 -4 93 -9  1008  -3.5  754  308           
00 19.11.17 090 (В) 13-16{17}  4000 м  слаб. ливневой снег  10/10 300 м кучево-дожд. 
[Cb cap]
-2.7 -3.5 94 -9  1004.4  -3.6  751  306           
03 19.11.17 070 (В) 14-17{20}  2000 м  слаб. ливневой снег  10/10 300 м кучево-дожд. 
[Cb cap]
-3 -3.8 94 -10  1001.8  -2.6  749  306           
06 19.11.17 070 (В) 12-15{18}  2000 м  слаб. ливневой снег  10/10 300 м кучево-дожд. 
[Cb cap]
-2.8 -3.6 94 -9  1001.8  0.1  749  305    -2.3  0.5     
09 19.11.17 060 (СВ) 12-16{19}  2000 м  слаб. ливневой снег  10/10 300 м кучево-дожд. 
[Cb cap]
-3.6 -4.4 94 -10  1004.3  2.5  751  307           
12 19.11.17 060 (СВ) 12-15{17}  2000 м  метель{ливн. осадки}  10/10 300 м 
[Sc]
-3.6 -5.1 89 -10  1007.9  3.5  754  308           
15 19.11.17 050 (СВ) 8-10{15}  20000 м  позёмок  9/9 600 м 
[Sc]
-3.4 -6.2 81 -8  1012.3  4.4  757  310           
18 19.11.17 050 (СВ) 5{11}  20000 м    9/8 600 м средняя 
[Sc|Ac trans]
-3 -7 74 -7  1016.4  4.1  760  311  -3.9    0.2  19  неравномерный
сухой снег
100% 
21 19.11.17 050 (СВ) 5{09}  4000 м  слаб. ливневой снег  10/10 300 м кучево-дожд. 
[Cb cap]
-3.1 -7.2 73 -7  1019.2  2.8  762  312           
00 20.11.17 060 (СВ) 4{07}  4000 м  слаб. снег{ливн. осадки}  10/10 600 м 
[Sc]
-3.3 -5 88 -6  1021.3  2.1  764  312           
03 20.11.17 070 (В) 2{06}  4000 м  слаб. ливневой снег  10/10 300 м кучево-дожд. 
[Cb cap]
-3.8 -4.9 92 -5  1022  0.7  764  313           
06 20.11.17 080 (В) 3{06}  4000 м  слаб. ливневой снег  10/10 300 м кучево-дожд. 
[Cb cap]
-3.7 -4.5 94 -6  1021.5  -0.5  764  313    -2.9     
09 20.11.17 100 (В) 3{07}  4000 м  слаб. ливневой снег  10/10 300 м кучево-дожд. 
[Cb cap]
-5.1 -6.4 91 -7  1020.3  -1.2  763  314           
12 20.11.17 100 (В) 7{09}  4000 м  слаб. ливневой снег  10/10 300 м кучево-дожд. 
[Cb cap]
-4 -6.8 81 -9  1018.5  -1.8  762  312           
15 20.11.17 090 (В) 8-10{10}  20000 м  позёмок{ливн. осадки}  10/10 600 м 
[Sc]
-4.2 -7 81 -9  1015.9  -2.6  760  312           
18 20.11.17 090 (В) 10-13{13}  20000 м  позёмок{ливн. осадки}  10/10 600 м 
[Sc]
-4.3 -6.1 87 -10  1012.7  -3.2  758  311  -5.1    0.5  20  неравномерный
сухой снег
100% 
Время (UTC), дата Ветер
(°,м/с) 
Видим.   Явления Облачность Т
(°С)
Тd
(°С)
f(%) Тe
(°С)
Pmin
(гПа)
dP
(гПа)
Po
(мм)
O2
(г/м3)
Тmin Tmax R s Состояние
почвы

Для получения пояснительной информации подведите курсор к названию столбца.

ПОГОДА Остров Врангеля - архив

Всё, что Вы хотите узнать о погоде Остров Врангеля - удобно и подробно!

Выберите нужную дату (начиная с 1 января 2015* года) и нажмите кнопку "Найти".
Будут отображены архивные сводки погоды по пункту Остров Врангеля, начиная с указанной даты.


Отображать данные в формате CSV (для использования в таблицах Excel)


Внимание! Наш архив погоды предназначен исключительно для личного некоммерческого использования в познавательных целях. Если Вам необходимы официальные справки о состоянии погоды (для производственных, юридических, коммерческих и т.п. целей), обращайтесь в органы Росгидромета.

*Примечание: данная дата относится к архиву по метеостанциям СССР (Россия, СНГ, Балтия).
Архив по метеостанциям Зарубежной Европы и Азии (кроме Китая) хранится 10 дней, по другим регионам земного шара (Китай, Африка, Америка, Австралия, Океания) - 1 день.

Остров Врангеля - район местоположения метеостанции


Название, широта, долгота, высота метеостанции:
Остров Врангеля 71°ш. -178.5°д. 5 м над ур. моря [Российская Федерация]

Дополнительная информация

В oтличие oт бoльшинства пoгoдных сайтoв мы публикуем пoдрoбную метеoинфoрмацию в детальнoм прoфессиoнальнoм фoрмате.

Характеристики температуры и влажнoсти вoздуха измеряются на высoте 2 м в тени вдали oт зданий и деревьев.
Скoрoсть ветра измеряется на высoте 10 м (на урoвне рoста челoвека скoрoсть ветра ниже в 1.5-2 раза). Если метеoстанция нахoдится в гoрoде или в лесу, тo скoрoсть ветра занижена на 2-4 м/с пo сравнению с oткрытым местoм. Скoрoсть ветра над акватoриями крупных рек и oзёр, а также на вершинах хoлмoв на 2-5 м/с выше, чем в oбычных услoвиях.
Атмoсфернoе давление в разных тoчках местнoсти мoжет значительнo oтличаться oт давления на метеoстанции, в зависимoсти oт услoвий рельефа (при пoдъёме на 10 м давление пoнижается примернo на 1 мм рт.ст.).